Regional Weather Roundup
Issued by NWS

Home | Current Version | Previous Version | Text Only | Print | Product List | Glossary Off
Versions: 1 2 3 4 5 6 7 8 9 10 11 12 13 14 15 16 17 18 19 20 21 22 23 24 25 26 27 28 29 30 31 32 33 34 35 36 37 38 39 40 41 42 43 44 45 46 47 48 49 50

000
ASUS43 KMPX 201501
RWRMN
WEATHER ROUNDUP FOR MINNESOTA
NATIONAL WEATHER SERVICE TWIN CITIES/CHANHASSEN MN
1000 AM CDT SUN APR 20 2014


NOTE: "FAIR" INDICATES FEW OR NO CLOUDS BELOW 12,000 FEET WITH NO
SIGNIFICANT WEATHER AND/OR OBSTRUCTIONS TO VISIBILITY. N/A MEANS
CURRENT SKY AND/OR WEATHER CONDITIONS ARE NOT AVAILABLE.

MNZ060>063-068>070-201600-
   Twin Cities Metro

CITY           SKY/WX    TMP DP  RH WIND       PRES   REMARKS
TWIN CITIES    MOSUNNY   59  47  64 E5        30.04F
ST PAUL        SUNNY     60  46  59 CALM      30.05S
CRYSTAL        SUNNY     59  44  57 VRB5      30.03F
BLAINE         SUNNY     61  45  55 NE5       30.04S
EDEN PRAIRIE   SUNNY     61  46  57 NE5       30.03F
LAKEVILLE      MOSUNNY   57  52  82 NE6       30.04S
SOUTH ST PAUL  SUNNY     63  43  49 NE5       30.04F
LAKE ELMO      FAIR      59  48  67 NE5       30.05F
$$
MNZ001>005-007-008-013>017-022>024-027-028-201600-
   Northwest Minnesota

CITY           SKY/WX    TMP DP  RH WIND       PRES   REMARKS
BEMIDJI        SUNNY     51  32  48 SE3       30.03S
HALLOCK        CLOUDY    43  36  75 CALM      30.03F
ROSEAU         SUNNY     43  34  70 CALM      30.04S
WARROAD        SUNNY     43  34  70 CALM      30.04F
THIEF RVR FALL SUNNY     46  34  61 CALM      30.03F
CROOKSTON      SUNNY     48  37  66 CALM      30.02F
FOSSTON        SUNNY     52  34  50 CALM      30.02F
DETROIT LAKES  SUNNY     52  34  50 SE5       30.02F
MOORHEAD       SUNNY     50  39  66 S3        30.03S
PARK RAPIDS    SUNNY     52  34  50 SE5       30.02F
$$
MNZ006-009>011-018-025>026-201600-
   North Central Minnesota

CITY           SKY/WX    TMP DP  RH WIND       PRES   REMARKS
BAUDETTE       SUNNY     42  31  64 CALM      30.04F
FLAG ISLAND    SUNNY     36  30  80 SE3       30.03S
INTL FALLS     SUNNY     44  31  60 W8        30.04F
WASKISH        SUNNY     45  37  76 NW3       30.04F
BIG FORK       SUNNY     52  34  50 W5        30.04F
LONGVILLE      SUNNY     54  36  50 CALM      30.03S
GRAND RAPIDS   SUNNY     48  36  61 CALM      30.05S
CRANE LAKE     SUNNY     46  45  93 NW5       30.05F
ORR            SUNNY     46  34  61 NW3       30.02S
COOK           SUNNY     46  36  66 W3        30.04S
$$
MNZ012-019>021-037-201600-
   Northeast Minnesota

CITY           SKY/WX    TMP DP  RH WIND       PRES   REMARKS
DULUTH         SUNNY     50  36  58 N3        30.03S
ELY            SUNNY     46  34  61 W3        30.03S
HIBBING        SUNNY     50  36  58 N5        30.04S
EVELETH        SUNNY     46  34  61 CALM      30.04F
DULUTH HARBOR  SUNNY     39  34  81 CALM      30.06S
TWO HARBORS    SUNNY     52  37  58 CALM      30.01S
SILVER BAY     SUNNY     50  41  71 CALM      30.00F
GRAND MARAIS     N/A     39  33  79 CALM      30.02S
G MARAIS ARPRT SUNNY     50  32  50 W6        30.01S
$$
MNZ029>031-032-039>041-046>048-054>057-064-201600-
   West Central Minnesota

CITY           SKY/WX    TMP DP  RH WIND       PRES   REMARKS
FERGUS FALLS   SUNNY     55  30  38 SE10      29.99F
WHEATON        SUNNY     55  41  58 E3        30.05S
MORRIS         SUNNY     59  37  44 E15       30.01S
ALEXANDRIA     SUNNY     55  36  48 E10       30.04S
ELBOW LAKE     FAIR      55  36  49 E10       30.01F
WADENA         SUNNY     54  36  50 SE6       30.02F
GLENWOOD       MOSUNNY   57  39  51 E8        30.03F
APPLETON       MOSUNNY   57  37  47 E13       30.02S
BENSON         MOSUNNY   57  36  44 SE12      30.03S
ORTONVILLE     SUNNY     54  37  54 SE10      30.02F
MADISON        MOSUNNY   54  41  62 E5        30.02F
WILLMAR        FAIR      55  37  50 E13       30.05S
$$
MNZ033>034-036-042>043-049>051-058-059-201600-
   Central Minnesota

CITY           SKY/WX    TMP DP  RH WIND       PRES   REMARKS
ST CLOUD       SUNNY     55  39  54 E7        30.05S
SAUK CENTRE    FAIR      55  39  53 E7        30.04F
PAYNESVILLE    SUNNY     55  35  48 E8        30.05S
AITKIN         SUNNY     54  37  54 CALM      30.03S
PINE RIVER     SUNNY     52  37  58 CALM      30.07S
BRAINERD       SUNNY     59  35  40 CALM      30.04F
STAPLES        SUNNY     54  36  50 SE5       30.03F
LONG PRAIRIE   FAIR      54  36  50 NE6       30.04F
LITTLE FALLS   SUNNY     54  37  54 NE3       30.04S
LITCHFIELD     SUNNY     55  45  67 NE5       30.04S
BUFFALO        SUNNY     55  42  60 CALM      30.05S
MAPLE LAKE     SUNNY     55  44  67 NE3       30.06S
$$
MNZ037-044-045-052-053-201600-
   East Central Minnesota

CITY           SKY/WX    TMP DP  RH WIND       PRES   REMARKS
PRINCETON      SUNNY     54  43  66 CALM      30.06R
MORA           SUNNY     52  39  62 CALM      30.06F
CAMBRIDGE      SUNNY     54  39  58 NE5       30.04R
RUSH CITY      SUNNY     47  39  73 CALM      30.05S
MOOSE LAKE     SUNNY     52  37  58 CALM      30.02F
HINCKLEY       FAIR      50  37  62 CALM      30.05S
CLOQUET        SUNNY     50  36  57 CALM      30.03F
MCGREGOR       SUNNY     52  37  58 CALM      30.05S
$$
MNZ071>073-080-081-089-090-097-098-201600-
   Southwest Minnesota

CITY           SKY/WX    TMP DP  RH WIND       PRES   REMARKS
MONTEVIDEO     MOSUNNY   55  43  62 SE8       30.04S
GRANITE FALLS  SUNNY     52  39  61 CALM      30.04F
CANBY          SUNNY     51  39  63 CALM      30.04S
MARSHALL       SUNNY     52  39  62 NW5       30.02F
REDWOOD FALLS  SUNNY     59  44  57 CALM      30.02S
OLIVIA         SUNNY     55  46  71 NE6       30.03S
PIPESTONE      SUNNY     64  30  27 E12       30.00F
WINDOM         MOSUNNY   63  37  39 NE9       30.03S
WORTHINGTON    MOSUNNY   61  36  39 NE15      30.03F
JACKSON        PTSUNNY   61  46  59 NE8       30.01F
TRACY          SUNNY     58  41  51 CALM      30.03S
SLAYTON        SUNNY     61  35  37 E9        30.03S
$$
MNZ065>067-074>077-082>085-091>093-201600-
   South Central Minnesota

CITY           SKY/WX    TMP DP  RH WIND       PRES   REMARKS
MANKATO        PTSUNNY   57  50  77 NE7       30.04S
NEW ULM        SUNNY     57  46  67 E6        30.02F
ST JAMES       SUNNY     59  46  63 NE6       30.04S
FAIRMONT       CLOUDY    55  48  76 E5        30.03F
GLENCOE        SUNNY     59  44  57 E8        30.03F
FARIBAULT      MOSUNNY   61  52  72 NE3       30.05R
OWATONNA       PTSUNNY   59  52  77 S9        30.04S
WASECA         PTSUNNY   61  54  77 S3        30.05S
ALBERT LEA     LGT RAIN  55  52  88 S5        30.05R
$$
MNZ078>079-086>088-094>096-201600-
   Southeast Minnesota

CITY           SKY/WX    TMP DP  RH WIND       PRES   REMARKS
ROCHESTER      CLOUDY    54  49  83 S10       30.07R
RED WING       MOSUNNY   59  52  77 SE3       30.04R
STANTON        CLOUDY    56  54  95 CALM      30.03S FOG
DODGE CENTER   PTSUNNY   59  52  77 S10       30.05R
WINONA           N/A    N/A N/A N/A MISG        N/A
AUSTIN         CLOUDY    54  52  94 S5        30.05S
PRESTON        RAIN      51  50  93 S5        30.08R
$$
ABBREVIATIONS USED IN REMARKS
   TC - TEMPERATURES IN CELSIUS
  WCI - WIND CHILL INDEX
   HX - HEAT INDEX
  VSB - VISIBILITY
$$


USA.gov is the U.S. government's official web portal to all federal, state and local government web resources and services.